FW3961 Weather Reports


Display with metric or nautical units.
time (UTC)temp
F
wind
direction
speed
MPH
gust
MPH
rain 1hr
in
rain 24hr
in
rain mn
in
humidity
%
barometer
mb
20260906212021 58 207 0.0 1.0 0.01 0.44 0.44 95 1018.6
20260906211522 58 207 0.0 1.0 0.01 0.44 0.44 95 1018.6
20260906211022 58 207 0.0 1.0 0.01 0.44 0.44 95 1018.5
20260906210521 58 207 0.0 1.0 0.02 0.44 0.44 95 1018.5
20260906210022 58 207 0.0 1.0 0.03 0.44 0.44 95 1018.5
20260906205521 58 207 0.0 2.0 0.03 0.44 0.44 95 1018.4
20260906205021 58 207 0.0 2.0 0.03 0.44 0.44 95 1018.5
20260906204525 57 200 1.0 2.0 0.03 0.44 0.44 95 1018.4
20260906204019 57 204 1.0 2.0 0.04 0.44 0.44 95 1018.4
20260906203512 57 204 0.0 3.0 0.04 0.44 0.44 95 1018.4
20260906203007 57 203 0.0 3.0 0.05 0.44 0.44 95 1018.3
20260906202505 57 196 0.0 2.0 0.05 0.43 0.43 95 1018.3
20260906202501 57 200 0.0 2.0 0.05 0.43 0.43 95 1018.3
20260906201449 57 196 0.0 2.0 0.06 0.43 0.43 95 1018.3
20260906200943 57 196 0.0 1.0 0.07 0.43 0.43 95 1018.2
20260906200438 57 196 0.0 2.0 0.07 0.42 0.42 95 1018.1
20260906195934 57 195 0.0 1.0 0.07 0.41 0.41 95 1018.2
20260906195930 57 196 0.0 2.0 0.06 0.41 0.41 95 1018.2
20260906194918 57 195 0.0 1.0 0.08 0.41 0.41 95 1018.2
20260906194414 57 195 0.0 1.0 0.08 0.41 0.41 95 1018.1
20260906193907 57 201 0.0 3.0 0.07 0.40 0.40 95 1018.2
20260906193401 57 201 0.0 3.0 0.08 0.40 0.40 95 1018.1
20260906192855 57 223 0.0 1.0 0.07 0.39 0.39 95 1018.1
20260906192349 57 223 0.0 2.0 0.06 0.38 0.38 95 1018.1
20260906191842 56 223 0.0 2.0 0.05 0.37 0.38 95 1018.1
20260906191337 56 232 0.0 2.0 0.05 0.37 0.37 95 1018.2
20260906190831 56 232 0.0 2.0 0.04 0.36 0.36 95 1018.2
20260906190325 56 232 0.0 2.0 0.04 0.35 0.35 95 1018.3
20260906185819 56 233 0.0 3.0 0.03 0.34 0.34 95 1018.2
20260906185314 56 232 0.0 3.0 0.02 0.33 0.33 95 1018.3
20260906184808 56 203 0.0 2.0 0.02 0.33 0.33 95 1018.1
20260906184639 56 201 0.0 1.0 0.02 0.32 0.32 95 1018.1
20260906184531 56 203 0.0 2.0 0.03 0.33 0.33 95 1018.1
20260906183250 56 201 0.0 2.0 0.02 0.32 0.32 95 1018.0
20260906182743 56 201 1.0 2.0 0.02 0.32 0.32 95 1018.1
20260906182237 56 203 0.0 2.0 0.03 0.32 0.32 95 1018.0
20260906181731 57 222 0.0 1.0 0.03 0.32 0.32 95 1018.0
20260906181228 57 222 0.0 1.0 0.04 0.32 0.32 95 1017.8
20260906181224 57 222 0.0 1.0 0.03 0.32 0.32 95 1018.0
20260906180552 56 222 0.0 1.0 0.04 0.31 0.31 95 1017.7
20260906180444 56 222 0.0 1.0 0.04 0.31 0.31 95 1017.8
20260906175201 56 222 0.0 2.0 0.05 0.31 0.31 95 1017.8
20260906174655 56 222 1.0 2.0 0.06 0.31 0.31 95 1017.8
20260906174153 56 224 0.0 2.0 0.06 0.30 0.30 95 1017.7
20260906174148 56 223 1.0 2.0 0.06 0.30 0.30 95 1017.8
20260906173141 56 224 0.0 2.0 0.07 0.29 0.29 95 1017.6
20260906173137 56 224 0.0 2.0 0.07 0.30 0.30 95 1017.7
20260906172125 56 228 0.0 2.0 0.07 0.29 0.29 95 1017.6
20260906171619 56 229 0.0 2.0 0.08 0.29 0.29 95 1017.6
20260906171113 56 258 0.0 1.0 0.07 0.28 0.28 95 1017.6
20260906170607 56 258 0.0 0.0 0.08 0.28 0.28 95 1017.5
20260906170106 56 258 0.0 0.0 0.08 0.26 0.26 95 1017.5
20260906170100 56 258 0.0 0.0 0.08 0.27 0.27 95 1017.5
20260906165049 56 258 0.0 0.0 0.09 0.26 0.26 95 1017.5
20260906164547 56 258 0.0 1.0 0.09 0.24 0.24 95 1017.4
20260906164543 56 258 0.0 1.0 0.09 0.25 0.25 95 1017.5
20260906163535 56 258 0.0 1.0 0.09 0.23 0.23 95 1017.3
20260906163531 56 258 0.0 1.0 0.10 0.24 0.24 95 1017.4
20260906162523 56 265 0.0 4.0 0.10 0.22 0.22 95 1017.4
20260906162519 56 258 0.0 4.0 0.09 0.22 0.22 95 1017.3
20260906161506 56 221 0.0 2.0 0.09 0.21 0.21 95 1017.4
20260906161000 56 231 0.0 2.0 0.09 0.20 0.20 95 1017.3
20260906160458 56 231 0.0 2.0 0.08 0.19 0.20 95 1017.3
20260906155949 56 231 0.0 1.0 0.08 0.19 0.19 95 1017.3
20260906155442 56 231 0.0 2.0 0.08 0.18 0.18 95 1017.3
20260906154940 56 231 0.0 2.0 0.07 0.17 0.17 95 1017.3
20260906154438 56 231 0.0 1.0 0.06 0.16 0.16 95 1017.3
20260906153939 56 231 0.0 1.0 0.06 0.15 0.15 95 1017.3
20260906153439 56 231 0.0 1.0 0.05 0.14 0.14 95 1017.3
20260906152943 56 231 0.0 0.0 0.04 0.13 0.13 95 1017.4
20260906152939 56 231 0.0 0.0 0.05 0.14 0.14 95 1017.3
20260906151941 56 231 0.0 2.0 0.04 0.12 0.12 95 1017.2
20260906151937 56 231 0.0 1.0 0.04 0.12 0.12 95 1017.3
20260906150932 56 231 0.0 2.0 0.03 0.11 0.11 95 1017.2
20260906150429 56 231 0.0 2.0 0.03 0.11 0.11 95 1017.1
20260906145929 56 233 0.0 2.0 0.03 0.11 0.11 95 1017.0
20260906145430 56 238 0.0 1.0 0.02 0.10 0.10 95 1017.0
20260906144927 56 257 0.0 1.0 0.02 0.10 0.10 95 1016.9
20260906144426 56 257 0.0 1.0 0.02 0.10 0.10 95 1017.0
20260906143926 56 257 0.0 1.0 0.01 0.09 0.09 95 1016.9
20260906143424 56 257 0.0 1.0 0.01 0.09 0.09 95 1017.0
20260906142922 56 257 0.0 1.0 0.02 0.10 0.09 95 1017.0
20260906142428 56 257 0.0 1.0 0.01 0.09 0.08 95 1016.8
20260906142424 56 257 0.0 1.0 0.02 0.10 0.09 95 1016.8
20260906141423 56 257 0.0 1.0 0.01 0.09 0.08 95 1016.9
20260906140923 56 257 0.0 1.0 0.01 0.09 0.08 95 1016.8
20260906140424 56 257 0.0 0.0 0.02 0.09 0.08 95 1016.8
20260906135922 56 257 0.0 0.0 0.02 0.09 0.08 95 1016.7
20260906135428 56 257 0.0 1.0 0.02 0.09 0.08 95 1016.7
20260906135423 56 257 0.0 0.0 0.02 0.09 0.08 95 1016.7
20260906134422 56 257 0.0 1.0 0.02 0.09 0.08 95 1016.6
20260906133930 56 257 0.0 1.0 0.02 0.09 0.08 95 1016.5
20260906133922 56 257 0.0 1.0 0.02 0.09 0.08 95 1016.5
20260906132922 56 256 0.0 2.0 0.01 0.08 0.07 94 1016.5
20260906132423 56 256 0.0 2.0 0.01 0.08 0.07 94 1016.4
20260906131926 56 306 0.0 0.0 0.01 0.08 0.07 94 1016.3
20260906131426 56 306 0.0 0.0 0.01 0.08 0.07 94 1016.3
20260906130921 56 306 0.0 0.0 0.01 0.08 0.07 94 1016.3
20260906130417 56 306 0.0 0.0 0.00 0.07 0.07 94 1016.2
20260906125915 56 306 0.0 0.0 0.00 0.07 0.06 94 1016.3
20260906125911 56 306 0.0 0.0 0.00 0.07 0.06 94 1016.1
20260906124859 56 306 0.0 0.0 0.00 0.07 0.06 94 1016.3
20260906124354 56 306 0.0 0.0 0.00 0.07 0.06 94 1016.4
20260906123848 56 306 0.0 0.0 0.00 0.07 0.06 94 1016.5
20260906123341 56 306 0.0 0.0 0.00 0.07 0.06 94 1016.5
20260906122836 56 306 0.0 0.0 0.00 0.07 0.06 94 1016.5
20260906122330 56 306 0.0 0.0 0.00 0.07 0.06 94 1016.5
20260906121824 56 306 0.0 0.0 0.00 0.07 0.06 94 1016.5
20260906121318 56 306 0.0 0.0 0.01 0.07 0.06 93 1016.5
20260906121147 56 306 0.0 0.0 0.01 0.07 0.06 94 1016.5
20260906121038 56 306 0.0 0.0 0.01 0.07 0.06 94 1016.6
20260906115800 56 306 0.0 0.0 0.01 0.07 0.06 93 1016.5
20260906115253 56 306 0.0 0.0 0.01 0.07 0.06 93 1016.5
20260906114747 56 306 0.0 0.0 0.03 0.07 0.06 93 1016.4
20260906114238 56 306 0.0 0.0 0.05 0.07 0.06 93 1016.4
20260906113735 56 306 0.0 0.0 0.06 0.07 0.06 93 1016.5
20260906113229 56 306 0.0 0.0 0.06 0.07 0.06 93 1016.5
20260906112725 56 306 0.0 0.0 0.06 0.07 0.06 93 1016.5
20260906112218 56 306 0.0 0.0 0.06 0.07 0.06 93 1016.4
20260906111711 56 306 0.0 0.0 0.06 0.07 0.06 92 1016.4
20260906111206 56 306 0.0 0.0 0.05 0.06 0.05 92 1016.5
20260906110659 57 306 0.0 0.0 0.05 0.06 0.05 92 1016.5
20260906110156 57 306 0.0 0.0 0.05 0.06 0.05 92 1016.6
20260906105649 57 306 0.0 0.0 0.05 0.06 0.05 92 1016.6
20260906105142 57 306 0.0 0.0 0.04 0.05 0.04 92 1016.6
20260906104636 57 306 0.0 0.0 0.03 0.04 0.03 92 1016.6
20260906104129 57 306 0.0 0.0 0.01 0.02 0.01 92 1016.6
20260906103624 57 306 0.0 0.0 0.00 0.01 0.00 91 1016.6
20260906103118 57 306 0.0 0.0 0.00 0.01 0.00 91 1016.5
20260906102612 57 306 0.0 0.0 0.00 0.01 0.00 91 1016.5
20260906102110 57 306 0.0 1.0 0.00 0.01 0.00 91 1016.4
20260906101608 57 306 0.0 1.0 0.00 0.01 0.00 91 1016.4
20260906101112 57 306 0.0 0.0 0.00 0.01 0.00 91 1016.3
20260906101108 57 306 0.0 1.0 0.00 0.01 0.00 91 1016.3
20260906100109 57 306 0.0 1.0 0.00 0.01 0.00 91 1016.3
20260906095606 57 306 0.0 1.0 0.00 0.01 0.00 91 1016.2
20260906095110 57 306 0.0 0.0 0.00 0.01 0.00 91 1016.3
20260906095106 57 306 0.0 1.0 0.00 0.01 0.00 91 1016.3
20260906094106 57 306 0.0 0.0 0.00 0.01 0.00 91 1016.3
20260906093605 57 306 0.0 0.0 0.00 0.01 0.00 91 1016.2
20260906093108 57 306 0.0 0.0 0.00 0.01 0.00 90 1016.2
20260906092606 57 306 0.0 0.0 0.00 0.01 0.00 90 1016.1
20260906092105 57 306 0.0 0.0 0.00 0.01 0.00 90 1016.0
20260906091605 57 306 0.0 0.0 0.00 0.01 0.00 90 1016.2
20260906091106 57 306 0.0 0.0 0.00 0.01 0.00 90 1016.2
20260906090605 57 306 0.0 0.0 0.00 0.01 0.00 90 1016.3
20260906090106 57 306 0.0 0.0 0.00 0.01 0.00 90 1016.1
20260906085606 57 306 0.0 0.0 0.00 0.01 0.00 90 1016.2
20260906085110 57 306 0.0 0.0 0.00 0.01 0.00 90 1016.1
20260906085106 57 306 0.0 0.0 0.00 0.01 0.00 90 1016.2
20260906084105 57 306 0.0 0.0 0.00 0.01 0.00 90 1016.2
20260906083607 57 306 0.0 0.0 0.00 0.01 0.00 90 1016.2
20260906083104 57 306 0.0 0.0 0.00 0.01 0.00 90 1016.3
20260906082606 57 306 0.0 0.0 0.00 0.01 0.00 90 1016.2
20260906082104 57 306 0.0 0.0 0.00 0.01 0.00 90 1016.1
20260906081602 57 306 0.0 0.0 0.00 0.01 0.00 90 1016.3
20260906081102 57 306 0.0 0.0 0.00 0.01 0.00 89 1016.2
20260906080602 57 306 0.0 0.0 0.00 0.01 0.00 89 1016.2
20260906075606 57 306 0.0 0.0 0.00 0.01 0.00 89 1016.3
20260906075602 57 306 0.0 1.0 0.00 0.01 0.00 89 1016.2
20260906074559 57 306 0.0 1.0 0.00 0.01 0.00 89 1016.3
20260906074102 57 306 0.0 0.0 0.00 0.01 0.00 89 1016.4
20260906074058 57 306 0.0 1.0 0.00 0.01 0.00 89 1016.3
20260906073555 57 306 0.0 0.0 0.00 0.01 0.00 89 1016.3
20260906072556 57 306 0.0 0.0 0.00 0.01 0.00 89 1016.5
20260906072057 57 306 0.0 1.0 0.00 0.01 0.00 89 1016.4
20260906072053 57 306 0.0 1.0 0.00 0.01 0.00 89 1016.4
20260906071052 57 306 0.0 0.0 0.00 0.01 0.00 88 1016.4
20260906070552 58 306 0.0 1.0 0.00 0.01 0.00 88 1016.3
20260906070053 58 306 0.0 1.0 0.00 0.01 0.00 88 1016.4
20260906065550 58 306 0.0 1.0 0.00 0.01 0.01 88 1016.5
20260906065050 58 306 0.0 0.0 0.00 0.01 0.01 88 1016.4
20260906064551 58 306 0.0 0.0 0.00 0.01 0.01 87 1016.3
20260906064046 58 306 0.0 0.0 0.00 0.01 0.01 88 1016.2
20260906063547 58 306 0.0 0.0 0.00 0.01 0.01 88 1016.1
20260906063046 58 306 0.0 0.0 0.00 0.01 0.01 88 1016.2
20260906062547 58 306 0.0 0.0 0.00 0.01 0.01 88 1016.2
20260906062046 58 306 0.0 0.0 0.00 0.01 0.01 88 1016.2
20260906061551 58 306 0.0 0.0 0.00 0.01 0.01 88 1016.2
20260906061050 58 306 0.0 0.0 0.00 0.01 0.01 88 1016.3
20260906060553 58 306 0.0 0.0 0.00 0.01 0.01 88 1016.4
20260906060051 58 306 0.0 0.0 0.00 0.01 0.01 88 1016.4
20260906055546 58 306 0.0 0.0 0.00 0.01 0.01 87 1016.3
20260906055038 58 306 0.0 0.0 0.00 0.01 0.01 87 1016.4
20260906054532 58 306 0.0 0.0 0.00 0.01 0.01 87 1016.4
20260906054029 58 306 0.0 1.0 0.00 0.01 0.01 87 1016.6
20260906054025 58 306 0.0 0.0 0.00 0.01 0.01 87 1016.6
20260906053016 58 306 0.0 1.0 0.00 0.01 0.01 87 1016.6
20260906052508 58 306 0.0 1.0 0.00 0.01 0.01 86 1016.7
20260906052006 58 306 0.0 0.0 0.00 0.01 0.01 86 1016.6
20260906052002 58 306 0.0 0.0 0.00 0.01 0.01 86 1016.6
20260906050950 58 306 0.0 0.0 0.00 0.01 0.01 85 1016.6
20260906050443 59 306 0.0 1.0 0.00 0.01 0.01 85 1016.6
20260906045938 59 306 0.0 2.0 0.00 0.01 0.01 85 1016.6
20260906045432 59 306 0.0 1.0 0.00 0.01 0.01 85 1016.5
20260906044926 59 306 0.0 0.0 0.00 0.01 0.01 85 1016.6
20260906044420 59 306 0.0 1.0 0.00 0.01 0.01 85 1016.7
20260906043914 59 306 0.0 1.0 0.00 0.01 0.01 85 1016.7
20260906043408 59 306 0.0 1.0 0.00 0.01 0.01 85 1016.7
20260906042902 59 306 0.0 1.0 0.00 0.01 0.01 84 1016.7
20260906042735 60 306 0.0 3.0 0.00 0.01 0.01 84 1016.7
20260906042627 59 306 0.0 3.0 0.00 0.01 0.01 84 1016.7
20260906041724 60 302 0.0 2.0 0.00 0.01 0.01 84 1016.8
20260906041615 60 302 0.0 1.0 0.00 0.01 0.01 84 1016.8
20260906040332 60 302 0.0 2.0 0.00 0.01 0.01 84 1016.7
20260906040206 60 302 1.0 3.0 0.00 0.01 0.01 84 1016.6
20260906040057 60 302 0.0 3.0 0.00 0.01 0.01 84 1016.7
20260906034814 60 333 0.0 2.0 0.00 0.01 0.01 84 1016.6
20260906034308 61 348 0.0 1.0 0.00 0.01 0.01 83 1016.6
20260906033802 61 348 0.0 1.0 0.00 0.01 0.01 83 1016.5
20260906033257 61 348 0.0 1.0 0.00 0.01 0.01 82 1016.4
20260906032749 61 348 0.0 3.0 0.00 0.01 0.01 82 1016.4
20260906032246 61 348 0.0 3.0 0.00 0.02 0.01 81 1016.4
20260906031738 61 246 0.0 3.0 0.00 0.02 0.01 81 1016.4
20260906031232 62 246 0.0 3.0 0.00 0.02 0.01 80 1016.4
20260906030726 62 246 0.0 1.0 0.00 0.02 0.01 80 1016.3
20260906030220 62 246 0.0 1.0 0.00 0.02 0.01 79 1016.3
20260906025713 62 246 0.0 1.0 0.00 0.02 0.01 79 1016.2
20260906025208 62 246 0.0 2.0 0.00 0.02 0.01 78 1016.4
20260906024702 63 246 0.0 2.0 0.00 0.02 0.01 78 1016.3
20260906024534 63 246 0.0 3.0 0.00 0.02 0.01 77 1016.4
20260906024426 63 246 0.0 3.0 0.00 0.02 0.01 77 1016.4
20260906023144 64 246 0.0 2.0 0.00 0.02 0.01 76 1016.5
20260906022638 64 246 0.0 2.0 0.00 0.03 0.01 76 1016.5
20260906022132 64 246 0.0 2.0 0.00 0.03 0.01 75 1016.5
20260906021626 64 242 0.0 2.0 0.00 0.03 0.01 75 1016.4
20260906021120 65 242 1.0 5.0 0.00 0.04 0.01 74 1016.4
20260906020614 65 288 1.0 5.0 0.00 0.04 0.01 74 1016.3
20260906020448 66 131 1.0 2.0 0.00 0.05 0.01 73 1016.1
20260906020338 65 309 1.0 4.0 0.00 0.05 0.01 74 1016.2
20260906015056 66 264 1.0 2.0 0.00 0.05 0.01 72 1016.1
20260906014550 67 252 1.0 5.0 0.00 0.05 0.01 72 1016.2
20260906014044 67 252 1.0 5.0 0.00 0.05 0.01 71 1016.2
20260906013542 67 294 1.0 3.0 0.00 0.07 0.01 67 1016.2
20260906013538 67 355 1.0 4.0 0.00 0.06 0.01 69 1016.3
20260906012531 68 171 1.0 4.0 0.00 0.08 0.01 67 1016.2
20260906012526 68 329 1.0 4.0 0.00 0.07 0.01 66 1016.2
20260906011517 68 163 1.0 4.0 0.00 0.08 0.01 65 1016.3
20260906011509 68 347 1.0 3.0 0.00 0.08 0.01 66 1016.3
20260906010502 68 314 1.0 2.0 0.00 0.08 0.01 65 1016.4
20260906005956 68 314 0.0 2.0 0.00 0.08 0.01 65 1016.4
20260906005450 68 314 0.0 2.0 0.00 0.08 0.01 66 1016.5
20260906004949 69 314 0.0 2.0 0.00 0.08 0.01 65 1016.5
20260906004452 69 355 1.0 2.0 0.00 0.08 0.01 65 1016.5
20260906003950 69 355 1.0 3.0 0.00 0.08 0.01 64 1016.4
20260906003449 69 275 1.0 3.0 0.00 0.08 0.01 64 1016.4
20260906002950 70 166 1.0 3.0 0.00 0.08 0.01 64 1016.4
20260906002448 70 58 1.0 3.0 0.00 0.08 0.01 64 1016.4
20260906001950 70 34 2.0 5.0 0.00 0.08 0.01 62 1016.3
20260906001946 70 38 1.0 4.0 0.00 0.08 0.01 64 1016.3
20260906000946 70 66 1.0 5.0 0.00 0.08 0.01 64 1016.2
20260906000448 71 161 1.0 4.0 0.00 0.08 0.01 63 1016.2
20260905235945 71 174 1.0 3.0 0.00 0.08 0.01 63 1016.2
20260905235446 71 286 1.0 4.0 0.00 0.08 0.01 62 1016.1
20260905234945 71 240 1.0 4.0 0.00 0.08 0.01 61 1016.2
20260905234446 71 351 2.0 4.0 0.00 0.08 0.01 59 1016.1
20260905233941 71 228 2.0 3.0 0.00 0.08 0.01 60 1016.1
20260905233441 71 294 1.0 3.0 0.00 0.08 0.01 61 1016.2
20260905232941 70 324 0.0 3.0 0.00 0.08 0.01 62 1016.2
20260905232442 70 269 0.0 2.0 0.00 0.08 0.01 62 1016.3
20260905232214 69 269 1.0 2.0 0.00 0.08 0.01 63 1016.4
20260905231448 70 215 1.0 5.0 0.00 0.08 0.01 62 1016.6
20260905231443 69 204 1.0 4.0 0.00 0.08 0.01 61 1016.5
20260905230441 69 198 1.0 5.0 0.00 0.08 0.01 63 1016.6
20260905225942 68 202 1.0 3.0 0.00 0.08 0.01 66 1016.6
20260905225441 68 238 1.0 3.0 0.00 0.08 0.01 66 1016.5
20260905224942 68 88 0.0 2.0 0.00 0.08 0.01 66 1016.7
20260905224442 69 80 0.0 3.0 0.00 0.08 0.01 66 1016.6
20260905223941 69 149 0.0 3.0 0.00 0.08 0.01 65 1016.8
20260905223442 69 101 1.0 3.0 0.00 0.08 0.01 66 1016.7
20260905222941 70 22 2.0 4.0 0.00 0.08 0.01 63 1016.7
20260905222441 71 317 2.0 5.0 0.00 0.08 0.01 62 1016.8
20260905221942 72 311 2.0 5.0 0.00 0.08 0.01 64 1016.8
20260905221445 73 223 2.0 5.0 0.00 0.08 0.01 60 1016.8
20260905220938 72 208 1.0 4.0 0.00 0.08 0.01 58 1016.8
20260905220432 71 221 1.0 3.0 0.00 0.08 0.01 60 1016.9
20260905215927 71 198 2.0 4.0 0.00 0.08 0.01 60 1016.9
20260905215425 71 195 1.0 3.0 0.00 0.08 0.01 62 1017.0
20260905215421 71 206 1.0 4.0 0.00 0.08 0.01 60 1016.9
20260905214409 70 122 0.0 3.0 0.00 0.08 0.01 66 1017.0
20260905213903 70 71 1.0 5.0 0.00 0.08 0.01 66 1017.1
20260905213357 70 69 2.0 5.0 0.00 0.08 0.01 65 1017.1
20260905212851 69 94 1.0 3.0 0.00 0.08 0.01 69 1017.0